Regional Weather Roundup
Issued by NWS

Home | Current Version | Previous Version | Text Only | Print | Product List | Glossary On
Versions: 1 2 3 4 5 6 7 8 9 10 11 12 13 14 15 16 17 18 19 20 21 22 23 24 25 26 27 28 29 30 31 32 33 34 35 36 37 38 39 40 41 42 43 44 45 46 47 48 49 50
000
ASUS43 KFSD 111510
RWRSD

WEATHER ROUNDUP FOR SOUTH DAKOTA
NATIONAL WEATHER SERVICE SIOUX FALLS SD
1000 AM CDT FRI JUL 11 2014

NOTE: "FAIR" INDICATES FEW OR NO CLOUDS BELOW 12,000 FEET WITH NO
SIGNIFICANT WEATHER AND/OR OBSTRUCTIONS TO VISIBILITY.


SDZ001>005-009-010-012>017-111600-
NORTHWEST AND NORTH CENTRAL SOUTH DAKOTA

CITY           SKY/WX    TMP DP  RH WIND       PRES   REMARKS
BUFFALO          N/A     72  62  71 NE23G29   29.98R
FAITH            N/A     77  69  76 N17       29.97R
MOBRIDGE       SUNNY     77  70  79 N13       29.91R
$$

SDZ012>016-024>037-041>051-057-063-072>074-111600-
SOUTHWEST AND SOUTH CENTRAL SOUTH DAKOTA

CITY           SKY/WX    TMP DP  RH WIND       PRES   REMARKS
RAPID CTY ARPT SUNNY     79  62  56 N8        30.00R
PIERRE         SUNNY     80  69  69 CALM      29.91R
CUSTER         PTSUNNY   74  54  49 NE7       30.15R
ELLSWORTH AFB  SUNNY     79  61  53 N6        30.00R
PHILIP         SUNNY     80  65  59 S3        29.94R
PINE RIDGE     PTSUNNY   76  66  71 VRB7      30.01R
WINNER         FAIR      79  66  64 SW6       29.93R
$$

SDZ004>011-016>023-039-040-111600-
NORTHEAST SOUTH DAKOTA

CITY           SKY/WX    TMP DP  RH WIND       PRES   REMARKS
ABERDEEN       SUNNY     76  70  82 E6        29.89R
WATERTOWN      MOSUNNY   77  69  76 W10       29.90S
SISSETON         N/A     80  70  71 NW6       29.85S
$$

SDZ017-020-022-023-036>040-048>070-111600-
SOUTHEAST SOUTH DAKOTA

CITY           SKY/WX    TMP DP  RH WIND       PRES   REMARKS
SIOUX FALLS    PTSUNNY   79  70  74 SW12G18   29.91R
HURON          MOSUNNY   80  68  66 VRB3      29.87S
CHAMBERLAIN    SUNNY     78  68  72 N3        29.90R
MITCHELL       PTSUNNY   78  71  79 S13       29.89R
YANKTON        PTSUNNY   73  68  83 SW14      29.91S
$$

ABBREVIATIONS USED IN REMARKS
   TC - TEMPERATURE IN CELSIUS
  WCI - WIND CHILL INDEX
   HX - HEAT INDEX
  VSB - VISIBILITY



USA.gov is the U.S. government's official web portal to all federal, state and local government web resources and services.